Location: Battersea Observatory
(44.4318°N, 76.3841°W)
Time: 08:00:45
(UTC-05:00)

ISS - Pass Details

Date: 03 December 2021
Orbit: 413 x 422 km, 51.6° (Epoch: 24 January)

Event Time Altitude Azimuth Distance (km) Brightness Sun altitude
Rises 18:51:54 0° 299° (WNW) 2,381 0.9 -25.2°
Reaches altitude 10° 18:54:01 10° 298° (WNW) 1,511 -0.2 -25.6°
Enters shadow 18:55:42 27° 292° (WNW) 854 -1.7 -25.9°
